#timestamp,LO_Frequency,Hit,StdDev 
1667286015.5,286047002.0,N
1667286035.3,286047004.3,Y
1667286055.2,286047000.6,P
1667286075.0,286047000.8,N
1667286075.9,286047000.8,N
1667286095.8,286046998.5,N
1667286115.6,286046996.8,N
1667286135.4,286046999.1,N
1667286155.3,286046999.4,N
1667286175.1,286047001.2,N
1667286195.8,286046998.4,N
1667286215.7,286046997.4,N
1667286235.5,286046998.0,N
1667286255.4,286046996.8,N
1667286275.2,286046998.7,N
1667286295.0,286046998.7,N
1667286295.9,286046998.7,N
1667286315.8,286046999.3,N
1667286335.6,286046999.8,N
1667286355.4,286046998.5,N
1667286375.3,286046998.9,N
1667286395.1,286046998.3,N
1667286415.9,286047001.1,N
1667286435.7,286046999.9,N
1667286455.5,286047000.2,N
1667286475.4,286046999.8,N
1667286495.2,286047000.2,N
1667286515.0,286047002.7,N
1667286516.0,286047002.7,N
1667286535.8,286047002.1,N
1667286555.6,286047000.2,N
1667286575.5,286047000.6,N
1667286595.3,286047000.9,N
1667286615.1,286047002.5,N
1667286635.9,286046999.8,N
1667286655.7,286046999.8,N
1667286675.6,286047002.0,N
1667286695.4,286046999.8,N
1667286715.2,286047000.0,N
1667286735.1,286047002.5,N
1667286736.0,286047002.5,N
1667286755.8,286046999.8,N
1667286775.7,286046998.2,N
1667286795.3,286047000.0,N
1667286815.1,286047000.1,N
1667286835.8,286047001.0,N
1667286855.7,286047000.3,N
1667286875.5,286047000.3,N
1667286895.4,286047002.8,N
1667286915.2,286047001.7,N
1667286935.0,286047001.5,N
1667286935.9,286047001.5,N
1667286955.8,286047001.8,N
1667286975.6,286047001.3,N
1667286995.5,286047002.0,N
1667287015.3,286047000.0,N
1667287035.1,286046999.8,N
1667287055.9,286046999.9,N
1667287075.7,286047002.7,N
1667287095.5,286046999.1,N
1667287115.4,286046998.9,N
1667287135.2,286046998.6,N
1667287155.1,286047000.8,N
1667287156.0,286047000.8,N
1667287175.8,286047000.4,N
1667287195.6,286047000.2,N
1667287215.5,286047002.3,N
1667287235.3,286047002.0,N
1667287255.2,286047001.4,N
1667287275.9,286047002.3,N
1667287295.7,286047001.6,N
1667287315.6,286047001.8,N
1667287335.6,286047002.5,N
1667287355.5,286046999.8,N
1667287375.3,286047002.3,N
1667287395.1,286047001.0,N
1667287415.9,286046998.6,N
1667287435.7,286046999.7,N
1667287455.6,286047002.5,N
1667287475.4,286047001.8,N
1667287495.2,286047002.4,N
1667287515.1,286047000.9,N
1667287516.0,286047000.9,N
1667287535.8,286046996.6,N
1667287555.6,286046998.7,N
1667287575.5,286046999.8,N
1667287595.3,286047000.1,N
1667287615.2,286046998.4,N
1667287635.9,286047000.3,N
1667287655.7,286046999.4,N
1667287675.6,286046999.0,N
1667287695.4,286046998.8,N
1667287715.3,286046999.8,N
1667287735.1,286047001.7,N
1667287736.0,286047001.7,N
1667287755.8,286047004.4,N
1667287775.7,286047003.9,N
1667287795.5,286047004.0,N
1667287815.3,286047001.9,N
1667287835.2,286047003.2,N
1667287855.0,286047003.3,N
1667287855.9,286047003.3,N
1667287875.8,286047003.5,N
1667287895.6,286047001.0,N
1667287915.4,286046998.3,N
1667287935.3,286047000.1,N
1667287955.1,286047001.6,N
1667287975.8,286047001.6,N
1667287995.7,286047001.5,N
1667288015.5,286047002.0,N
1667288035.4,286047002.8,N
1667288055.2,286047002.5,N
1667288075.0,286047002.6,N
1667288075.9,286047002.6,N
1667288095.8,286046999.9,N
1667288115.6,286046999.0,N
1667288135.4,286046998.9,N
1667288155.3,286046998.7,N
1667288175.1,286046998.5,N
1667288195.9,286047002.5,N
1667288215.7,286047002.5,N
1667288235.5,286047002.8,N
1667288255.4,286047001.8,N
1667288275.2,286047001.7,N
1667288295.0,286047004.0,N
1667288295.9,286047004.0,N
1667288315.8,286047003.5,N
1667288335.6,286047006.0,Y
1667288355.5,286047002.3,P
1667288375.3,286047002.6,P
1667288395.1,286046999.9,N
1667288415.9,286047002.7,N
1667288435.7,286047002.6,N
1667288455.6,286047002.5,N
1667288475.4,286047002.6,N
1667288495.3,286047001.6,N
1667288515.1,286047001.3,N
1667288516.0,286047001.3,N
1667288535.8,286047002.2,N
1667288555.7,286047004.0,Y
1667288575.5,286047000.5,P
1667288595.3,286047000.4,N
1667288615.2,286047000.5,N
1667288635.0,286046996.5,Y
1667288635.9,286046996.5,P
1667288655.8,286046995.4,N
1667288705.6,286046996.5,E
1667288715.6,286046998.2,N
1667288735.4,286047002.2,P
1667288755.3,286047001.6,N
1667288775.1,286047001.4,N
1667288776.0,286047001.4,N
1667288795.8,286047001.6,N
1667288815.7,286047001.4,N
1667288835.5,286047001.8,N
1667288855.3,286047004.1,Y
1667288875.2,286047004.4,P
1667288895.0,286047002.1,N
1667288895.9,286047002.1,N
1667288915.8,286047002.8,N
1667288935.6,286047001.6,N
1667288955.4,286047001.6,N
1667288975.3,286047001.3,N
1667288995.1,286047003.2,Y
1667289015.9,286047002.7,P
1667289035.7,286047001.0,P
1667289055.5,286047001.1,N
1667289075.4,286046998.4,N
1667289095.2,286046998.7,N
1667289115.0,286046999.1,N
1667289115.9,286046999.1,N
1667289135.8,286046998.6,N
1667289155.6,286047000.6,N
1667289175.5,286047000.8,N
1667289195.3,286047000.2,N
1667289215.1,286046999.9,N
1667289235.9,286047000.2,N
1667289255.7,286047001.0,N
1667289275.5,286046998.3,N
1667289295.4,286047002.7,N
1667289315.2,286047000.3,N
1667289335.1,286046999.9,N
1667289336.0,286046999.9,N
1667289355.8,286047000.8,N
1667289375.6,286046996.8,N
1667289395.5,286046998.4,N
1667289415.3,286046998.7,N
1667289435.1,286046998.4,N
1667289455.9,286046996.6,N
1667289475.7,286046999.0,N
1667289495.6,286046999.7,N
1667289515.4,286047000.4,N
1667289535.2,286047001.0,N
1667289555.1,286047000.2,N
1667289556.0,286047000.2,N
1667289575.8,286047001.0,N
1667289595.7,286046999.2,N
